Temp
9 9 9 9 9 9 8 8 8 8 8 8 8 8 8 8 8 8 7 7 7 6 6 6 6 7 7 7 7 7 7 6 6 6 5 5 6 6 6 5 6 6 6
9 9 9 9 8 8 8 8 8 8 8 8 8 8 8 8 7 7 7 7 7 6 6 6 6 7 7 7 7 7 6 6 6 5 5 5 6 6 6 5 6 5 6
8 8 8 9 8 8 8 8 8 8 8 8 7 8 8 8 7 7 7 7 7 6 6 6 7 7 7 7 7 7 7 7 6 6 5 5 5 5 6 6 6 6 5
7 8 8 8 8 8 8 8 8 8 8 8 7 7 7 7 7 7 7 7 7 7 6 6 7 7 7 7 7 7 7 7 7 7 7 6 5 5 6 5 6 6 6
7 7 8 8 8 8 8 8 8 8 7 7 7 7 7 7 7 7 7 6 7 6 6 6 6 6 7 7 7 7 7 7 7 7 7 7 6 5 5 6 6 5 5
7 7 7 7 7 7 8 7 7 7 7 7 7 7 7 7 7 7 7 6 6 6 6 6 6 6 7 7 7 7 7 7 7 8 8 7 7 6 5 5 5 5 4
7 7 7 7 7 7 7 7 7 7 7 7 7 7 7 7 7 7 7 6 6 6 6 6 6 6 6 7 7 7 7 7 7 8 8 7 7 7 6 5 5 5 5
7 7 7 7 7 7 7 7 7 7 7 6 7 7 7 7 6 6 6 6 6 6 6 6 6 6 7 7 7 7 7 7 7 8 8 7 7 7 7 6 6 6 5
7 7 7 7 7 7 7 6 6 6 6 6 6 6 7 7 6 6 6 6 6 6 6 7 7 7 7 7 7 7 7 7 8 8 8 7 7 7 7 7 6 6 6
7 7 7 7 7 7 7 6 6 6 6 6 6 6 6 6 6 6 6 6 6 6 6 6 6 6 7 7 7 7 7 7 7 8 7 7 7 5 6 7 7 6 6
6 7 7 7 7 7 7 7 6 6 6 6 6 6 5 6 6 6 6 5 5 6 5 5 5 6 6 6 7 7 7 7 7 7 7 7 4 4 4 6 6 6 6
7 7 7 7 7 7 7 7 6 6 6 6 6 5 5 5 5 5 6 6 5 5 5 5 5 5 5 6 6 6 6 6 7 7 6 6 3 3 3 5 6 6 6
7 7 7 7 7 7 7 6 6 6 6 6 6 5 5 5 5 5 5 5 5 5 5 5 5 5 5 6 6 6 6 6 7 7 6 6 3 3 3 4 5 5 6
7 7 7 7 7 7 6 6 6 6 6 6 6 5 5 5 5 5 5 5 5 5 5 5 5 5 5 5 5 5 5 5 6 6 6 5 3 3 3 4 4 4 5
6 6 6 6 6 6 6 6 6 6 5 5 5 5 5 5 5 5 5 5 4 4 4 4 4 4 4 4 4 4 5 5 6 6 5 5 3 3 3 3 3 3 4
6 6 6 6 5 5 5 5 5 5 5 5 5 5 5 5 5 5 5 5 4 4 4 4 4 4 3 3 4 4 4 5 5 5 5 4 3 3 3 3 3 2 4
5 5 5 5 5 5 5 4 4 4 4 4 4 4 4 4 5 4 4 4 4 4 4 4 3 4 3 3 3 3 4 4 5 5 4 4 3 4 3 3 3 3 2
5 4 4 4 4 4 4 4 4 4 3 3 3 3 4 4 3 3 3 4 4 4 4 4 3 2 3 3 2 2 3 3 4 4 3 4 3 3 3 3 2 1 1
4 4 4 4 3 3 3 3 3 3 3 3 3 3 2 3 3 3 3 3 3 3 3 3 3 3 3 2 1 2 1 2 2 1 2 2 2 2 2 2 1 2 1
4 3 3 3 3 3 3 3 3 3 3 3 3 2 2 2 2 3 2 2 2 2 2 2 2 2 2 2 3 2 1 1 1 0 -0 -0 1 1 2 1 1 1 1
3 3 2 3 2 3 3 3 3 3 3 2 2 2 2 1 1 2 2 2 1 1 1 1 2 2 2 2 2 0 1 1 0 1 1 0 0 1 1 1 1 -0 1
2 2 2 3 2 2 2 2 3 3 3 2 1 1 2 1 1 1 1 1 1 1 1 0 1 1 1 -1 -0 1 1 -0 0 1 1 1 -1 0 1 1 1 1 0
2 2 2 2 2 2 2 2 3 3 3 3 2 1 1 1 1 1 1 1 0 -0 -1 -0 -0 -0 -0 -0 0 -1 -1 0 -0 0 1 1 -0 -1 0 1 1 -0 -0
1 2 2 2 1 2 2 2 2 2 3 2 2 2 1 0 0 -0 0 1 0 0 -0 -1 -1 -1 -1 -1 -1 -1 0 -1 -1 -1 0 -0 -0 -1 0 0 0 -0 -1
2 2 2 1 1 2 2 2 2 2 2 2 2 2 2 1 1 0 -0 -0 -1 -1 -0 -1 -1 -1 -1 -1 -1 -1 -1 -1 -1 -1 -1 -0 -0 -1 -1 -1 -0 -1 -1
1 1 1 1 1 2 2 2 2 2 1 1 1 1 1 0 -0 0 0 -0 -1 -3 -3 -2 -2 -1 -1 -1 -2 -2 -1 -2 -0 -2 -1 -1 -1 -1 -1 -1 -1 -2 -2
Height
3149 3150 3152 3153 3154 3155 3156 3158 3158 3158 3158 3159 3159 3160 3161 3161 3162 3163 3163 3163 3163 3163 3163 3163 3162 3163 3163 3162 3161 3161 3161 3162 3162 3162 3161 3161 3163 3164 3165 3165 3166 3167 3168
3148 3149 3151 3152 3153 3154 3155 3156 3157 3157 3158 3158 3158 3159 3160 3161 3161 3161 3162 3162 3163 3162 3163 3163 3163 3163 3163 3162 3162 3161 3161 3161 3162 3162 3162 3163 3163 3165 3165 3166 3167 3168 3169
3145 3148 3149 3151 3152 3153 3154 3154 3155 3156 3157 3158 3158 3158 3159 3160 3160 3161 3161 3162 3163 3163 3162 3162 3162 3163 3162 3162 3162 3161 3161 3161 3161 3162 3162 3164 3164 3166 3167 3167 3168 3168 3169
3144 3145 3148 3149 3150 3151 3152 3153 3154 3155 3156 3157 3157 3158 3158 3159 3160 3160 3161 3161 3161 3162 3162 3162 3162 3162 3162 3162 3161 3161 3160 3161 3161 3162 3163 3164 3165 3166 3167 3168 3168 3169 3169
3142 3144 3145 3147 3149 3150 3151 3152 3153 3154 3154 3155 3156 3157 3157 3157 3158 3159 3159 3160 3161 3161 3161 3161 3162 3161 3161 3161 3161 3160 3160 3160 3161 3161 3162 3164 3164 3166 3167 3168 3168 3169 3168
3143 3143 3144 3145 3147 3148 3149 3150 3151 3152 3152 3153 3154 3155 3156 3157 3157 3157 3158 3158 3159 3160 3160 3160 3161 3161 3161 3161 3160 3160 3159 3159 3159 3161 3161 3162 3164 3165 3166 3167 3168 3168 3168
3141 3142 3143 3144 3145 3146 3147 3148 3149 3150 3151 3151 3152 3153 3154 3155 3155 3156 3156 3157 3158 3158 3159 3160 3160 3160 3161 3161 3160 3159 3159 3159 3158 3159 3160 3162 3162 3163 3164 3165 3167 3167 3167
3139 3140 3141 3141 3142 3144 3145 3146 3147 3148 3148 3149 3150 3151 3152 3152 3153 3154 3155 3155 3156 3157 3158 3158 3159 3159 3159 3159 3159 3159 3158 3158 3158 3159 3159 3161 3161 3161 3162 3163 3164 3165 3166
3136 3137 3139 3138 3139 3140 3141 3142 3143 3145 3146 3147 3147 3148 3149 3150 3151 3152 3152 3153 3154 3155 3156 3157 3157 3157 3158 3158 3157 3157 3157 3157 3157 3157 3159 3159 3160 3159 3160 3162 3162 3163 3164
3132 3133 3134 3135 3135 3136 3137 3138 3139 3140 3142 3143 3144 3145 3146 3147 3148 3150 3150 3151 3152 3153 3153 3154 3155 3155 3156 3156 3155 3155 3155 3155 3155 3156 3157 3157 3157 3158 3158 3159 3160 3161 3162
3130 3130 3131 3131 3132 3133 3132 3133 3134 3135 3137 3138 3140 3142 3143 3144 3145 3146 3147 3148 3149 3150 3150 3151 3152 3152 3153 3153 3153 3153 3153 3153 3153 3154 3155 3155 3156 3157 3156 3157 3159 3160 3160
3127 3128 3129 3128 3129 3129 3129 3130 3131 3131 3132 3133 3134 3136 3138 3139 3140 3142 3143 3144 3145 3146 3147 3148 3148 3149 3149 3150 3151 3151 3150 3150 3150 3152 3153 3153 3155 3155 3155 3156 3157 3158 3159
3124 3125 3125 3125 3125 3125 3126 3126 3126 3126 3127 3128 3129 3131 3132 3135 3136 3137 3138 3139 3140 3141 3142 3144 3145 3146 3146 3147 3148 3148 3147 3147 3147 3149 3150 3151 3154 3154 3153 3154 3155 3156 3157
3122 3122 3122 3122 3122 3122 3122 3122 3122 3123 3122 3123 3124 3126 3126 3128 3130 3131 3133 3134 3135 3136 3137 3138 3140 3141 3142 3143 3144 3144 3144 3144 3145 3146 3148 3149 3151 3150 3151 3152 3153 3154 3155
3119 3120 3120 3120 3120 3120 3120 3120 3119 3119 3119 3119 3119 3119 3121 3122 3124 3125 3127 3129 3130 3130 3131 3132 3134 3135 3137 3139 3140 3139 3140 3140 3142 3142 3144 3146 3147 3147 3149 3150 3151 3151 3153
3117 3117 3117 3118 3117 3117 3117 3117 3117 3117 3116 3115 3115 3114 3114 3115 3118 3119 3120 3122 3123 3124 3125 3126 3126 3127 3130 3132 3135 3134 3135 3137 3139 3138 3141 3143 3144 3145 3146 3147 3148 3149 3150
3115 3115 3115 3115 3115 3115 3114 3114 3113 3112 3112 3112 3111 3110 3109 3108 3110 3113 3113 3113 3114 3116 3118 3120 3120 3121 3110 3120 3127 3129 3129 3132 3135 3134 3136 3139 3140 3141 3142 3143 3144 3145 3147
3112 3112 3112 3112 3111 3111 3110 3110 3109 3108 3108 3107 3106 3106 3105 3103 3104 3105 3105 3105 3106 3108 3109 3110 3113 3115 3114 3113 3121 3120 3125 3126 3128 3130 3131 3134 3136 3137 3138 3139 3140 3141 3143
3109 3109 3108 3108 3107 3106 3105 3104 3103 3103 3102 3101 3100 3099 3099 3096 3098 3099 3098 3098 3099 3100 3101 3102 3104 3108 3110 3111 3114 3114 3119 3121 3123 3124 3126 3129 3131 3132 3134 3135 3135 3137 3138
3106 3106 3105 3104 3102 3101 3099 3098 3096 3095 3095 3093 3092 3091 3090 3089 3089 3091 3092 3091 3092 3093 3094 3095 3097 3098 3101 3104 3105 3109 3112 3113 3114 3116 3118 3123 3126 3129 3128 3129 3131 3132 3134
3102 3102 3101 3100 3097 3095 3092 3090 3089 3087 3085 3084 3082 3083 3082 3080 3078 3080 3082 3083 3083 3084 3087 3087 3088 3090 3091 3093 3099 3102 3106 3104 3108 3111 3114 3117 3120 3122 3122 3123 3125 3126 3128
3098 3096 3094 3092 3090 3088 3085 3082 3079 3077 3075 3073 3072 3071 3071 3072 3072 3070 3070 3073 3073 3075 3077 3079 3080 3082 3083 3088 3089 3093 3096 3098 3099 3103 3104 3106 3110 3114 3116 3117 3118 3120 3123
3092 3090 3088 3085 3083 3080 3077 3074 3071 3068 3065 3063 3061 3060 3060 3060 3062 3062 3061 3062 3063 3065 3068 3071 3073 3074 3075 3078 3081 3086 3086 3089 3091 3096 3097 3100 3105 3108 3109 3110 3111 3115 3117
3088 3086 3082 3079 3076 3073 3069 3065 3061 3058 3055 3054 3052 3051 3051 3050 3050 3052 3052 3053 3053 3055 3057 3062 3066 3068 3069 3071 3074 3079 3080 3082 3084 3087 3091 3094 3098 3097 3101 3104 3106 3108 3111
3082 3079 3076 3072 3069 3065 3061 3057 3053 3048 3045 3043 3042 3041 3042 3040 3040 3041 3042 3043 3044 3044 3047 3051 3056 3059 3061 3063 3066 3071 3073 3074 3076 3082 3085 3090 3090 3091 3092 3096 3098 3100 3102
3076 3072 3068 3064 3061 3057 3053 3048 3044 3039 3035 3033 3032 3032 3032 3032 3031 3031 3032 3033 3034 3035 3038 3040 3046 3051 3052 3055 3058 3061 3062 3066 3070 3076 3078 3081 3085 3086 3088 3088 3090 3092 3094
Wind_Speed
7 11 11 10 8 6 5 4 4 5 6 6 5 5 4 5 4 3 3 3 3 4 3 2 4 6 3 3 4 4 2 8 9 7 6 7 8 11 13 12 12 9 8
6 11 12 11 9 7 7 6 5 5 4 6 5 4 3 3 5 4 4 4 4 4 2 5 4 2 1 2 3 3 2 4 9 10 9 5 11 12 10 10 12 10 8
11 11 12 12 10 8 8 8 7 6 6 5 5 4 4 3 4 4 4 5 5 4 5 4 3 1 2 3 3 2 1 2 6 10 14 10 15 13 11 8 10 10 9
9 11 12 13 12 10 9 9 8 8 7 7 6 5 4 5 5 4 4 5 5 5 3 3 3 1 2 3 3 3 1 2 3 5 7 12 16 15 9 7 7 8 12
8 10 11 12 11 10 10 10 10 9 9 9 8 8 7 5 6 5 5 5 4 5 4 5 4 4 4 5 4 3 3 2 3 4 8 11 17 18 16 11 11 10 9
5 7 9 10 10 10 11 11 11 10 11 11 10 9 8 7 7 7 6 6 6 7 4 8 8 9 8 8 6 5 4 4 5 3 6 12 14 17 18 16 14 14 11
9 10 10 10 9 10 11 12 12 12 13 13 12 12 11 10 10 9 7 8 10 10 8 8 11 13 13 10 8 7 6 4 6 5 4 8 10 12 14 14 14 14 12
11 13 13 13 14 14 14 13 13 12 13 15 16 15 14 13 12 12 10 8 10 11 13 13 15 16 14 10 9 9 9 8 7 7 4 6 8 10 12 14 15 15 15
16 17 17 18 18 17 17 17 16 15 14 14 17 17 17 16 15 14 13 12 12 13 13 14 14 14 12 10 10 10 10 10 10 8 5 6 7 10 12 12 14 14 15
12 13 15 18 20 21 22 21 21 21 20 19 17 18 19 20 19 17 17 16 15 15 16 16 14 13 12 11 11 11 11 12 11 9 7 7 5 8 10 12 13 13 14
13 13 13 15 16 16 18 19 19 22 23 24 23 20 21 22 22 21 20 20 18 18 17 18 16 15 14 13 13 12 13 14 13 11 9 7 8 12 10 7 11 11 12
11 12 12 14 15 16 18 18 17 18 20 22 25 25 23 21 23 24 25 24 23 22 22 20 20 18 16 14 14 14 15 16 16 11 11 9 12 14 14 10 9 9 9
7 8 8 10 12 16 17 18 19 20 21 21 22 25 27 27 25 24 25 27 27 26 25 24 23 23 21 17 15 15 18 19 19 14 14 13 15 18 18 12 10 9 10
3 3 4 4 5 6 9 12 17 21 23 24 23 23 25 28 30 29 26 25 27 30 30 28 26 25 26 22 18 17 19 21 20 17 15 16 18 23 23 15 12 12 11
3 4 5 5 5 5 6 8 10 13 17 22 25 27 25 26 27 31 33 31 27 26 27 30 31 29 29 25 23 21 22 23 22 20 15 18 20 26 19 19 17 15 14
6 7 7 7 8 8 8 8 9 11 13 16 19 23 28 30 28 28 30 33 36 32 36 33 30 40 36 32 27 29 26 25 24 23 16 20 22 31 27 22 21 22 19
7 8 9 9 10 11 12 12 13 14 14 14 17 19 21 25 27 28 29 32 35 38 38 39 39 30 24 23 30 32 30 27 29 25 23 27 37 35 33 31 29 29 22
8 9 10 12 13 13 14 15 16 18 18 18 19 20 21 24 22 23 25 31 35 36 39 41 43 41 40 38 40 29 33 29 31 27 25 24 36 41 40 37 32 32 24
10 12 13 14 15 17 19 20 21 22 22 24 26 27 25 28 26 23 24 25 27 32 35 38 40 37 37 31 39 35 37 40 34 26 25 24 27 31 33 33 27 31 23
13 14 15 17 20 22 23 24 25 26 27 29 28 28 30 31 31 28 27 28 28 26 28 31 32 36 40 46 34 31 25 23 31 39 29 25 26 30 30 28 27 26 27
16 18 20 22 24 26 28 29 30 30 32 34 33 30 29 31 34 33 29 33 33 31 28 28 30 31 36 42 33 34 44 34 27 32 29 34 33 40 37 38 39 32 31
19 23 25 27 28 29 32 34 35 35 34 33 33 34 33 33 34 36 36 34 37 35 32 29 27 27 31 39 37 43 33 31 37 37 35 39 33 36 36 33 35 35 35
25 27 31 33 33 33 34 35 37 37 36 31 30 32 35 36 36 37 39 35 32 35 34 30 27 26 29 27 38 38 32 42 35 34 35 33 33 33 38 40 40 37 39
26 29 31 33 33 34 36 37 39 38 35 32 33 29 30 33 36 35 35 34 32 36 36 34 29 27 31 35 34 42 45 38 38 35 38 30 26 30 33 32 33 33 34
31 33 32 33 34 34 36 37 39 38 37 34 32 31 31 27 28 30 32 34 35 36 37 37 33 31 30 31 35 41 41 42 44 35 34 35 27 35 35 40 36 39 37
33 32 33 34 35 35 36 37 38 39 39 37 33 31 29 28 29 30 30 32 33 33 33 37 38 33 31 32 32 34 43 39 44 36 34 32 32 35 39 43 35 35 39
Wind_Direction
203 184 178 176 182 181 178 186 198 181 168 160 153 152 161 160 165 173 177 168 163 156 132 13 305 299 327 14 19 41 92 141 141 124 109 95 118 127 135 121 108 120 130
210 188 182 180 186 190 188 187 198 202 197 177 170 167 172 175 155 153 154 162 159 168 286 295 276 248 31 50 30 36 85 157 174 169 149 131 119 120 138 131 131 121 130
211 198 187 190 188 200 202 201 202 206 211 212 198 189 181 185 162 152 149 157 174 201 300 294 248 140 50 39 17 33 80 181 181 180 178 147 125 119 118 129 175 159 159
206 197 201 202 195 203 210 213 212 213 218 228 223 215 200 193 179 169 162 165 194 235 253 297 192 9 22 3 348 352 342 218 205 207 177 159 138 129 140 144 143 195 203
194 208 202 207 208 212 215 223 226 225 224 226 232 230 226 212 195 187 196 196 216 222 251 244 279 294 337 332 321 323 308 265 235 218 186 180 164 156 150 165 164 169 183
216 206 202 207 213 216 217 224 235 237 236 235 237 237 236 233 219 203 219 215 218 223 228 232 278 288 309 319 302 297 295 288 272 267 161 183 181 181 177 185 194 202 199
199 211 219 215 223 221 226 229 236 240 241 241 240 241 236 236 232 229 232 232 228 220 220 234 254 275 295 300 287 281 282 277 274 264 240 189 189 197 207 203 206 211 211
228 231 237 239 236 237 243 241 243 247 246 242 241 239 241 238 236 237 236 235 224 220 219 232 253 274 286 283 277 274 276 274 261 255 228 221 212 208 214 215 223 225 229
243 242 242 250 252 251 249 248 246 246 248 247 247 246 244 246 243 241 241 243 235 231 236 245 259 272 277 276 270 265 266 271 272 261 240 230 229 226 215 221 223 221 223
243 243 242 244 252 255 256 255 254 253 249 248 249 248 249 248 250 248 246 248 245 244 244 248 266 275 277 273 267 263 261 262 266 265 241 233 239 217 210 221 224 223 223
254 253 252 252 250 251 255 255 256 257 255 253 250 247 249 249 250 251 251 252 251 252 251 252 258 271 273 272 269 264 262 259 261 260 238 230 175 199 237 225 222 225 224
260 261 257 260 261 259 257 259 260 259 257 254 253 249 246 249 252 251 251 252 253 254 255 256 256 261 266 265 265 264 259 257 257 253 235 214 179 216 234 214 213 220 221
275 272 269 263 262 263 264 263 260 260 261 259 256 255 251 247 250 252 253 255 254 255 258 258 259 262 263 263 260 259 258 255 256 253 232 210 186 218 231 218 222 228 227
288 290 287 283 276 271 273 272 266 262 263 264 259 254 255 253 249 251 253 256 257 255 257 261 259 259 259 258 261 257 256 255 257 252 230 212 197 221 225 231 244 239 237
312 311 307 306 305 299 292 286 280 277 271 267 267 267 260 256 256 254 251 251 256 258 262 260 262 260 257 252 254 256 254 252 258 254 234 220 208 225 230 251 254 246 243
319 317 315 320 323 324 323 314 302 290 282 279 274 269 268 264 256 254 257 255 253 257 256 264 269 264 252 251 250 249 253 254 255 253 236 215 194 211 245 250 246 253 247
313 306 308 313 316 316 312 309 304 298 292 285 280 278 276 273 270 259 253 254 254 253 254 251 263 254 228 248 246 260 247 252 257 253 242 214 200 210 220 227 235 253 257
293 297 303 310 310 306 303 308 306 296 289 285 282 276 272 270 269 269 264 255 254 254 254 256 256 256 272 256 254 249 255 250 246 243 241 224 214 220 231 235 242 243 250
289 299 310 312 311 307 308 307 305 299 289 285 283 277 271 271 270 267 265 264 261 258 257 256 257 257 255 234 275 268 277 252 245 239 232 233 229 229 239 236 236 247 257
293 307 309 308 303 302 301 300 300 298 295 288 282 274 271 271 270 267 267 269 268 264 261 260 259 253 249 254 264 254 245 246 266 241 240 238 222 226 228 247 233 243 240
299 306 306 303 302 302 300 300 301 298 293 287 280 271 263 264 269 271 269 266 266 267 265 261 254 251 249 252 235 244 244 253 257 267 271 234 228 222 233 246 243 254 248
295 300 303 308 307 304 304 303 302 300 298 291 279 271 265 260 260 268 272 268 261 259 260 262 261 253 253 231 244 243 243 251 248 249 246 244 229 232 238 228 235 241 255
307 306 307 305 304 304 302 300 301 300 300 294 287 274 265 266 262 266 268 268 259 257 253 252 253 254 254 235 226 248 242 234 247 249 238 235 230 233 239 241 248 251 254
301 302 303 303 302 302 302 300 300 298 297 291 286 279 264 264 267 264 261 258 260 259 257 249 247 247 246 244 242 236 226 243 250 242 244 239 255 249 241 247 259 259 254
307 306 303 299 300 300 298 296 297 295 292 292 283 274 266 258 260 263 259 255 253 256 250 247 242 243 252 243 244 226 245 242 230 241 246 250 257 246 238 243 246 249 248
309 302 297 297 300 299 299 296 295 293 289 285 280 272 265 264 265 263 262 259 252 247 244 242 237 239 247 254 243 241 233 235 238 245 237 243 247 248 248 254 259 259 255